Tracking 30102 objects as of 12-Dec-2024
HD Live streaming from Space Station
objects crossing your sky now

STARLINK-32494

Track STARLINK-32494 now!
10-day predictions
STARLINK-32494 is classified as:


NORAD ID: 62053
Int'l Code: 2024-216X
Perigee: 410.6 km
Apogee: 412.3 km
Inclination: 43.0 °
Period: 92.6 minutes
Semi major axis: 6782 km
RCS: Unknown
Launch date: November 21, 2024
Source: United States (US)
Launch site: AIR FORCE EASTERN TEST RANGE (AFETR)
Your satellite tracking list
Your tracking list is empty




NASA's NSSDC Master Catalog

Two Line Element Set (TLE):
1 62053U 24216X   24347.16668981 -.01499164  00000-0 -25134-1 0  9998
2 62053  42.9992 315.1426 0001236 272.6524 318.7032 15.54252972  3239
Source of the keplerian elements: AFSPC